This is the latest recevied weather packets stored in our database for station/object W4ZHA. If no packets are shown the sender has not sent any weather packets the latest 10 day(s).
| Time | Temp. | Humidity | Pressure | Rain* | Wind** | Luminosity | Snow |
|---|---|---|---|---|---|---|---|
| 1778002946 | 25° C | 46% | 1014.1 hPa | 0 mm | - | 553 W/m² | - |
| 1778002642 | 25° C | 45% | 1014.1 hPa | 0 mm | - | 312 W/m² | - |
| 1778002339 | 25.56° C | 45% | 1014.1 hPa | 0 mm | - | 523 W/m² | - |
| 1778002036 | 25.56° C | 45% | 1014.4 hPa | 0 mm | - | 450 W/m² | - |
| 1778001733 | 25° C | 46% | 1014.4 hPa | 0 mm | - | 444 W/m² | - |
| 1778001433 | 25.56° C | 45% | 1014.4 hPa | 0 mm | - | 451 W/m² | - |
| 1778001130 | 24.44° C | 46% | 1015.1 hPa | 0 mm | - | 436 W/m² | - |
| 1778000827 | 24.44° C | 46% | 1014.8 hPa | 0 mm | - | 404 W/m² | - |
| 1778000524 | 25° C | 46% | 1014.8 hPa | 0 mm | - | 299 W/m² | - |
| 1778000224 | 25° C | 46% | 1015.1 hPa | 0 mm | - | 398 W/m² | - |
| 1777999920 | 23.89° C | 47% | 1014.8 hPa | 0 mm | - | 379 W/m² | - |
| 1777999616 | 23.89° C | 47% | 1015.1 hPa | 0 mm | - | 436 W/m² | - |
| 1777999313 | 23.89° C | 46% | 1015.1 hPa | 0 mm | - | 387 W/m² | - |
| 1777999011 | 23.89° C | 46% | 1015.1 hPa | 0 mm | - | 204 W/m² | - |
| 1777998709 | 24.44° C | 55% | 1015.1 hPa | 0 mm | - | 451 W/m² | - |
| 1777998406 | 22.78° C | 53% | 1015.5 hPa | 0 mm | - | 417 W/m² | - |
| 1777998104 | 23.89° C | 53% | 1015.1 hPa | 0 mm | - | 302 W/m² | - |
| 1777997801 | 22.78° C | 54% | 1014.8 hPa | 0 mm | - | 374 W/m² | - |
| 1777997498 | 22.78° C | 55% | 1015.1 hPa | 0 mm | - | 331 W/m² | - |
| 1777997196 | 22.22° C | 55% | 1015.1 hPa | 0 mm | - | 358 W/m² | - |
| 1777996893 | 21.67° C | 56% | 1015.1 hPa | 0 mm | - | 401 W/m² | - |
| 1777996589 | 21.67° C | 56% | 1015.5 hPa | 0 mm | - | 371 W/m² | - |
| 1777996285 | 22.78° C | 57% | 1015.5 hPa | 0 mm | - | 366 W/m² | - |
| 1777995981 | 22.78° C | 55% | 1015.5 hPa | 0 mm | - | 329 W/m² | - |
| 1777995678 | 21.67° C | 56% | 1015.5 hPa | 0 mm | - | 348 W/m² | - |
* Rain latest hour (hover to see other rain measurements)
** Current wind speed in m/s (hover to see current wind gust speed)